Weather in Supetar

Croatia     43°23′07″N   16°33′20″E
В апреле 2022 года жителям России запретили посещать сайт meteo.paraplan.net по решению Генеральной прокуратуры. Аудитория сайта уменьшилась в 10 раз. Владельцы сайта не видят смысла в поддержке погодного сервера в таких условиях. Сайт будет закрыт в октябре.
temp.,
°C
wind,
m/s
gust,
m/s
humid.,
%
clouds,
%
prec.,
mm/h
press.,
hPa
HPBL,
m
25 september, sun
sun2523:00+15ese5861100 0.0 1019487
02:00+15ese71261100 0.0 1018657
05:00+14ese61163100 0.0 1017575
08:00+16ese81260100 0.0 1016824
11:00+14e61287100 4.2 1016580
14:00+15se6993100 10.4 1015555
17:00+16se61094100 1.9 1014790
20:00+16se599497 3.2 1014603
26 september, mon
mon2623:00+17ese7108683 0.3 1014545
02:00+16e4890100 0.6 1012272
05:00+16e4792100 2.5 1011225
08:00+17ese5889100 3.4 1010431
11:00+18se5886100 1.1 1010589
14:00+18sse348794 3.9 1009360
17:00+17sse4782100 5.5 1008394
20:00+16s2396100 11.7 1007197
27 september, tue
tue2723:00+17se129295 16.2 1007145
02:00+16ne3392100 19.0 100583
05:00+15ne338916 1.6 100473
08:00+15ne228515 2.4 100464
11:00+19sse11595 0.4 1004611
14:00+20sw32595 0.6 1004889
17:00+19sw11641 0.3 1004324
20:00+17ene227033 0.5 100585
28 september, wed
wed2823:00+16ene227445 0.1 100683
02:00+15ne227724 0.1 100683
05:00+15ene347780 0.0 1005147
08:00+16ene367896 0.2 1005283
11:00+19se786975 0.3 10051084
14:00+19sse9107727 0.7 1005940
17:00+19se697094 0.6 1004494
20:00+18se8117720 2.8 1004350
29 september, thu
thu2923:00+18sse6983100 3.9 1004369
02:00+16ese58885 8.7 1004287
05:00+16e589094 3.7 1004268
08:00+16ese5888100 6.9 1005288
11:00+19se787923 2.7 1007624
14:00+20se787581 4.4 1008765
17:00+19se597654 0.4 1008701
20:00+18ese7128238 1.3 1009446